SCP
1 1 1 1 1 1 1 1 0 0 0 0 0 0 0 0 0 0 0 0 0 0 0 0 0 0 0 0 0 0 0 0 0 0 0 0 0 0 0 0 0 0 0
1 1 1 1 1 1 1 1 0 0 0 0 0 0 0 0 0 0 0 0 0 0 0 0 0 0 0 0 0 0 0 0 0 0 0 0 0 0 0 0 0 0 0
1 1 1 1 1 1 1 1 0 0 0 0 0 0 0 0 0 0 0 0 0 0 0 0 0 0 0 0 0 0 0 0 0 0 0 0 0 0 0 0 0 0 0
1 1 1 1 1 1 1 1 1 0 0 0 0 0 0 0 0 0 0 0 0 0 0 0 0 0 0 0 0 0 0 0 0 0 0 0 0 0 0 0 0 0 0
1 1 1 1 1 1 1 1 0 0 0 0 0 0 0 0 0 0 0 0 0 0 0 0 0 0 0 0 0 0 0 0 0 0 0 0 0 0 0 0 0 0 0
1 1 1 1 1 1 1 1 0 0 0 0 0 0 0 0 0 0 0 0 0 0 0 0 0 0 0 0 0 0 0 0 0 0 0 0 0 0 0 0 0 0 0
1 1 1 1 1 1 1 1 0 0 0 0 0 0 0 0 0 0 0 0 0 0 0 0 0 0 0 0 0 0 0 0 0 0 0 0 0 0 0 0 0 0 0
0 1 1 1 1 1 1 0 0 0 0 0 0 0 0 0 0 0 0 0 0 0 0 0 0 0 0 0 0 0 0 0 0 0 0 0 0 0 0 0 0 0 0
0 0 1 1 1 0 0 0 0 0 0 0 0 0 0 0 0 0 0 0 0 0 0 0 0 0 0 0 0 0 0 0 0 0 0 0 0 0 0 0 0 0 0
0 0 0 0 0 0 0 0 0 0 0 0 0 0 0 0 0 0 0 0 0 0 0 0 0 0 0 0 0 0 0 0 0 0 0 0 0 0 0 0 0 0 0
0 0 0 0 0 0 0 0 0 0 0 0 0 0 0 0 0 0 0 0 0 0 0 0 0 0 0 0 0 0 0 0 0 0 0 0 0 0 0 0 0 0 0
0 0 0 0 0 0 0 0 0 0 0 0 0 0 0 0 0 0 0 0 0 0 0 0 0 0 0 0 0 0 0 0 0 0 0 0 0 0 0 0 0 0 0
0 0 0 0 0 0 0 0 0 0 0 0 0 0 0 0 0 0 0 0 0 0 0 0 0 0 0 0 0 0 0 0 0 0 0 0 0 0 0 0 0 0 0
0 0 0 0 0 0 0 0 0 0 0 0 0 0 0 0 0 0 0 0 0 0 0 0 0 0 0 0 0 0 0 0 0 0 0 0 0 0 0 0 0 0 0
0 0 0 0 0 0 0 0 0 0 0 0 0 0 0 0 0 0 0 0 0 0 0 0 0 0 0 0 0 0 0 0 0 0 0 0 0 0 0 0 0 0 0
0 0 0 0 0 0 0 0 0 0 0 0 0 0 0 0 0 0 0 0 0 0 0 0 0 0 0 0 0 0 0 0 0 0 0 0 0 0 0 0 0 0 0
0 0 0 0 0 0 0 0 0 0 0 0 0 0 0 0 0 0 0 0 0 0 0 0 0 0 0 0 0 0 0 0 0 0 0 0 0 0 0 0 0 0 0
0 0 0 0 0 0 0 0 0 0 0 0 0 0 0 0 0 0 0 0 0 0 0 0 0 0 0 0 0 0 0 0 0 0 0 0 0 0 0 0 0 0 0
0 0 0 0 0 0 0 0 0 0 0 0 0 0 0 0 0 0 0 0 0 0 0 0 0 0 0 0 0 0 0 0 0 0 0 0 0 0 0 0 0 0 0
0 0 0 0 0 0 0 0 0 0 0 0 0 0 0 0 0 0 0 0 0 0 0 0 0 0 0 0 0 0 0 0 0 0 0 0 0 0 0 0 0 0 0
0 0 0 0 0 0 0 0 0 0 0 0 0 0 0 0 0 0 0 0 0 0 0 0 0 0 0 0 0 0 0 0 0 0 0 0 0 0 0 0 0 0 0
0 0 0 0 0 0 0 0 0 0 0 0 0 0 0 0 0 0 0 0 0 0 0 0 0 0 0 0 0 0 0 0 0 0 0 0 0 0 0 0 0 0 0
0 0 0 0 0 0 0 0 0 0 0 0 0 0 0 0 0 0 0 0 0 0 0 0 0 0 0 0 0 0 0 0 0 0 0 0 0 0 0 0 0 0 0
0 0 0 0 0 0 0 0 0 0 0 0 0 0 0 0 0 0 0 0 0 0 0 0 0 0 0 0 0 0 0 0 0 0 0 0 0 0 0 0 0 0 0
0 0 0 0 0 0 0 0 0 0 0 0 0 0 0 0 0 0 0 0 0 0 0 0 0 0 0 0 0 0 0 0 0 0 0 0 0 0 0 0 0 0 0
0 0 0 0 0 0 0 0 0 0 0 0 0 0 0 0 0 0 0 0 0 0 0 0 0 0 0 0 0 0 0 0 0 0 0 0 0 0 0 0 0 0 0
Wind_Speed
6 5 7 8 8 8 9 9 9 8 7 5 5 5 4 4 4 4 5 6 6 6 5 4 4 4 4 4 4 3 3 2 2 2 2 1 0 1 2 2 3 4 5
5 6 7 8 9 10 10 9 9 9 8 6 5 3 3 3 3 3 4 6 6 6 6 5 4 5 4 4 4 3 3 2 2 3 2 1 2 1 2 2 3 4 3
8 8 8 8 9 9 10 10 10 9 9 7 4 3 3 2 2 3 4 5 6 7 6 6 5 5 5 5 5 5 5 3 2 2 3 3 3 1 1 2 2 3 3
6 6 7 8 9 10 9 8 9 8 8 8 7 8 6 5 5 4 4 4 6 6 6 6 6 6 5 5 6 5 4 4 3 2 1 2 3 3 1 1 1 2 3
7 7 8 8 8 8 8 8 7 8 8 7 8 7 5 4 3 3 5 4 4 5 6 6 6 6 5 5 5 5 5 4 4 4 3 2 1 1 2 1 1 1 1
6 6 5 6 6 6 7 7 7 7 7 8 8 8 7 6 5 5 5 4 3 3 5 6 6 6 5 6 5 5 6 5 4 4 3 3 3 3 3 3 2 1 1
6 6 6 6 6 7 7 7 7 7 7 7 7 7 7 7 7 6 6 5 4 4 5 5 5 5 5 6 5 5 5 6 5 5 4 3 3 3 3 3 2 1 1
4 5 6 6 6 6 6 7 7 7 7 7 7 6 7 5 4 5 5 6 5 5 5 6 6 6 6 6 5 5 5 5 5 6 5 3 3 3 4 4 4 2 0
5 5 6 6 6 7 6 6 7 6 6 7 6 6 6 6 6 5 4 4 4 4 5 6 6 5 5 6 6 4 5 5 5 5 5 4 3 3 3 3 4 4 3
5 5 5 5 5 5 5 5 5 5 5 5 5 5 5 5 5 5 5 5 5 4 5 5 5 5 5 5 5 4 4 5 5 4 5 4 3 3 3 3 3 3 4
6 6 5 5 5 4 4 4 4 4 4 4 4 4 4 4 4 4 5 5 4 4 5 5 5 5 5 4 4 4 5 6 5 4 5 4 3 3 3 3 3 3 3
6 6 6 5 5 4 4 4 4 4 4 4 3 3 3 3 3 3 3 4 4 4 5 5 5 5 5 4 5 5 5 5 5 5 4 4 3 4 3 3 3 3 3
6 5 5 5 5 5 4 4 4 4 3 3 3 3 3 3 3 3 3 3 4 3 3 4 4 4 4 4 5 5 4 5 4 4 4 4 4 4 3 3 3 3 3
6 6 5 5 5 5 4 4 4 3 4 4 4 3 2 2 2 2 2 2 3 3 3 3 3 3 4 4 4 4 4 4 3 3 3 4 5 5 4 3 3 3 4
6 6 6 5 5 5 4 4 4 3 4 4 3 2 2 2 2 2 2 2 2 3 3 3 2 2 3 3 4 4 4 4 3 2 2 2 3 3 3 3 4 5 4
8 7 6 6 6 6 5 4 4 4 4 4 3 3 3 3 3 3 3 3 3 3 3 2 2 2 1 2 4 5 4 4 4 4 4 4 4 7 8 8 7 6 5
9 8 7 7 6 6 5 5 4 4 5 4 4 3 3 4 3 3 4 3 3 3 3 3 3 3 2 3 5 6 5 5 4 5 5 4 5 7 7 10 12 11 10
9 8 7 7 5 5 5 5 5 5 5 4 4 3 4 4 4 4 4 3 3 3 3 3 3 4 4 5 7 8 6 6 5 5 5 6 6 7 8 10 11 10 9
8 8 7 7 6 6 6 6 6 5 5 4 4 3 4 4 4 4 3 3 4 4 4 4 4 5 5 7 8 9 6 6 7 6 6 7 7 11 13 12 12 11 9
6 7 7 7 7 6 6 7 6 5 4 4 3 3 4 4 4 3 3 3 4 4 4 5 5 5 5 6 8 8 6 7 6 6 6 9 9 11 12 10 11 11 8
7 7 8 7 6 6 7 7 5 4 4 4 4 4 4 4 4 4 4 4 4 5 5 6 5 5 5 7 8 8 6 7 7 6 5 6 12 12 12 10 9 11 9
8 7 7 5 4 5 7 6 5 4 5 5 5 5 4 4 4 4 4 4 5 6 5 5 5 5 5 6 7 9 9 8 8 6 6 7 12 12 12 10 12 13 10
8 7 7 6 4 3 5 6 5 5 5 6 5 5 5 4 4 4 4 4 4 4 4 4 4 4 4 5 9 10 11 11 7 7 11 12 12 12 10 13 13 9 6
7 7 8 7 5 4 4 4 5 5 6 6 5 4 5 4 4 3 3 3 3 4 4 4 4 4 3 3 4 5 7 10 9 8 12 14 13 10 10 9 7 6 5
5 6 7 6 5 4 5 4 4 5 6 6 5 5 4 5 5 4 4 3 2 2 4 4 4 5 4 3 6 6 5 6 7 9 7 6 6 6 6 6 5 5 5
6 6 6 6 5 5 5 4 3 5 6 6 5 4 4 4 4 5 6 10 8 9 7 6 5 4 6 9 10 10 11 11 12 9 7 6 6 6 5 5 5 4 4
Wind_Direction
198 168 165 167 167 169 175 179 182 176 169 168 172 175 186 183 182 190 184 180 180 180 179 187 178 173 177 181 169 143 140 131 129 108 74 18 350 220 228 234 229 227 224
171 169 165 170 177 177 181 185 188 180 179 183 177 171 161 172 174 180 182 183 184 185 189 184 180 180 174 171 172 155 147 155 157 137 118 24 338 306 245 230 228 233 225
185 180 174 174 175 180 187 192 191 184 183 172 148 127 111 104 145 180 188 192 192 191 189 186 182 183 179 184 185 176 165 165 174 161 150 160 213 261 296 250 235 229 221
178 175 170 176 181 186 186 185 180 181 181 168 171 171 177 180 188 185 187 185 193 192 191 187 186 184 185 188 192 184 175 157 167 175 184 168 159 162 236 305 266 236 232
169 175 178 182 179 178 177 176 171 177 178 177 182 183 186 184 168 166 175 186 196 198 193 189 187 187 190 192 190 178 179 174 172 172 167 156 129 143 159 229 294 328 274
159 161 160 156 156 159 163 165 168 177 177 179 181 185 185 177 171 178 186 191 191 197 198 193 191 190 191 193 194 187 184 187 182 180 174 168 167 181 175 193 220 238 298
147 146 148 154 153 155 160 162 171 181 180 181 184 188 188 185 189 189 193 190 188 198 205 199 194 193 196 192 187 186 191 191 189 190 194 192 192 166 164 167 182 199 278
139 148 152 151 152 156 162 167 178 185 180 183 190 189 186 188 196 196 193 195 199 202 198 196 197 196 193 191 184 189 197 193 197 200 194 193 200 183 178 172 162 163 211
140 138 140 147 154 157 169 179 180 180 181 185 186 186 188 190 197 197 193 198 202 200 193 194 197 198 192 188 181 192 199 192 198 197 194 197 201 194 196 184 174 168 189
136 134 139 147 149 149 153 161 162 170 174 174 180 184 186 193 193 186 191 197 200 194 184 189 193 195 192 187 183 191 196 191 197 190 188 198 199 196 192 194 191 182 178
149 144 144 143 136 127 135 139 143 144 150 164 171 174 181 183 182 190 196 196 194 189 186 189 190 191 191 185 184 195 191 191 194 193 191 202 195 189 187 183 180 181 168
146 144 141 132 130 133 137 137 140 144 154 154 154 165 165 162 175 191 194 187 191 191 188 183 187 194 194 189 188 197 195 190 189 191 189 201 195 194 188 184 187 185 178
143 141 138 138 140 137 133 132 137 143 140 138 142 143 147 156 172 188 190 185 187 185 179 178 186 191 191 191 193 192 188 184 185 186 189 195 186 194 190 183 184 179 165
149 145 143 143 140 133 132 128 125 131 134 133 136 139 144 150 162 161 164 171 163 163 170 173 181 184 178 180 183 180 176 169 168 178 188 190 188 191 181 171 168 152 137
154 154 153 150 141 132 130 128 123 118 118 114 112 117 113 109 114 123 130 130 137 145 144 151 163 169 172 183 178 171 164 157 144 133 133 137 137 144 145 149 150 146 138
166 162 154 149 144 141 139 133 120 112 109 109 104 97 98 94 93 94 98 105 111 112 114 123 133 141 162 148 151 145 138 135 132 123 108 98 96 98 96 97 102 114 133
170 169 164 159 153 151 146 141 129 117 113 111 105 99 101 100 91 91 91 95 97 100 101 101 101 100 97 118 128 129 127 123 123 123 117 104 95 98 101 89 81 76 83
169 168 162 155 149 141 132 129 122 120 118 112 108 103 102 101 96 94 91 87 90 92 93 93 100 99 85 100 115 115 109 105 98 97 104 107 98 99 108 100 86 73 62
166 160 156 145 140 139 135 128 126 123 119 118 116 116 115 108 101 97 91 89 94 88 82 83 90 93 83 91 106 114 106 98 89 84 87 100 101 102 106 103 98 90 79
140 140 133 127 135 139 133 129 133 132 135 135 127 118 118 116 110 102 93 91 98 97 92 81 80 90 88 90 103 112 113 107 99 87 83 88 101 106 106 108 109 105 98
125 128 128 132 140 139 136 136 136 141 143 130 119 113 114 116 114 108 100 101 105 102 96 90 78 76 83 90 95 103 111 117 111 101 91 89 100 101 99 101 104 112 110
119 122 120 115 116 133 139 138 140 138 131 126 120 115 113 115 114 114 109 107 113 109 105 99 86 69 74 88 97 99 103 114 114 112 106 102 102 99 97 94 100 103 101
121 117 120 116 106 114 134 138 135 128 127 125 122 116 108 102 105 115 117 110 110 113 113 111 105 91 80 84 91 98 104 107 105 105 108 105 101 97 91 94 99 101 101
119 119 120 121 116 108 109 120 125 126 125 124 120 116 112 104 96 97 105 114 121 126 125 124 121 112 104 105 109 106 103 100 100 102 101 96 90 87 90 91 87 84 91
112 120 124 124 120 113 104 103 117 126 125 121 118 114 111 112 100 86 73 92 84 126 140 142 143 141 138 137 132 130 123 121 119 116 105 99 98 96 92 87 82 86 93
115 114 114 117 115 112 105 101 110 125 127 125 123 118 114 112 114 111 86 61 72 78 85 100 121 113 118 120 115 111 112 115 121 113 112 112 111 110 109 107 98 90 95